This is the latest recevied weather packets stored in our database for station/object N9BLE. If no packets are shown the sender has not sent any weather packets the latest 10 day(s).
| Time | Temp. | Humidity | Pressure | Rain* | Wind** | Luminosity | Snow |
|---|---|---|---|---|---|---|---|
| 1777409693 | 17.78° C | 58% | 1017.1 hPa | 0 mm | - | 543 W/m² | - |
| 1777409389 | 17.22° C | 58% | 1017.3 hPa | 0 mm | - | 547 W/m² | - |
| 1777409084 | 16.67° C | 58% | 1017.4 hPa | 0 mm | - | 592 W/m² | - |
| 1777408781 | 17.22° C | 59% | 1017.5 hPa | 0 mm | - | 512 W/m² | - |
| 1777408477 | 17.22° C | 59% | 1017.5 hPa | 0 mm | - | 575 W/m² | - |
| 1777408172 | 17.22° C | 60% | 1017.7 hPa | 0 mm | - | 597 W/m² | - |
| 1777407867 | 17.22° C | 63% | 1017.3 hPa | 0 mm | - | 614 W/m² | - |
| 1777407566 | 17.22° C | 63% | 1017.6 hPa | 0 mm | - | 668 W/m² | - |
| 1777407265 | 16.67° C | 64% | 1017.7 hPa | 0 mm | - | 649 W/m² | - |
| 1777406965 | 16.67° C | 61% | 1018 hPa | 0 mm | - | 692 W/m² | - |
| 1777406659 | 16.67° C | 63% | 1018 hPa | 0 mm | - | 712 W/m² | - |
| 1777406355 | 17.22° C | 60% | 1017.6 hPa | 0 mm | - | 687 W/m² | - |
| 1777406055 | 16.67° C | 63% | 1017.7 hPa | 0 mm | - | 668 W/m² | - |
| 1777405752 | 16.67° C | 64% | 1017.8 hPa | 0 mm | - | 368 W/m² | - |
| 1777405448 | 16.67° C | 63% | 1017.9 hPa | 0 mm | - | 693 W/m² | - |
| 1777405146 | 16.67° C | 64% | 1018.1 hPa | 0 mm | - | 757 W/m² | - |
| 1777404844 | 16.67° C | 61% | 1018 hPa | 0 mm | - | 723 W/m² | - |
| 1777404540 | 15.56° C | 66% | 1018.2 hPa | 0 mm | - | 340 W/m² | - |
| 1777404236 | 15.56° C | 65% | 1018.2 hPa | 0 mm | - | 786 W/m² | - |
| 1777403933 | 16.11° C | 65% | 1018.4 hPa | 0 mm | - | 785 W/m² | - |
| 1777403632 | 16.67° C | 63% | 1018.3 hPa | 0 mm | - | 786 W/m² | - |
| 1777403327 | 16.11° C | 62% | 1018.2 hPa | 0 mm | - | 771 W/m² | - |
| 1777403027 | 15.56° C | 67% | 1018.3 hPa | 0 mm | - | 330 W/m² | - |
| 1777402723 | 15.56° C | 65% | 1018.7 hPa | 0 mm | - | 207 W/m² | - |
| 1777402418 | 15° C | 68% | 1018.4 hPa | 0 mm | - | 731 W/m² | - |
* Rain latest hour (hover to see other rain measurements)
** Current wind speed in m/s (hover to see current wind gust speed)